Wind_Speed
12 11 10 9 8 10 13 19 21 24 25 25 25 23 21 20 18 16 14 12 11 9 7 5 4 4 4 3 3 3 3 3 2 2 2 2 1 1 1 2 3 3 3
12 12 11 9 8 9 13 16 20 23 25 25 24 23 20 19 18 16 15 13 12 10 8 7 6 5 5 4 4 4 4 3 3 3 2 1 1 1 1 1 2 2 3
12 12 11 7 6 8 12 16 19 21 23 23 23 22 20 19 18 17 15 14 12 10 9 8 8 7 6 6 5 5 5 4 4 4 3 2 1 2 2 2 3 4 4
13 11 9 5 5 7 11 14 17 20 22 23 22 21 20 20 18 17 16 15 13 11 11 10 9 8 8 7 7 6 6 5 5 4 4 4 4 4 3 4 4 4 5
13 11 9 5 3 6 10 13 15 18 20 21 21 21 20 20 18 17 17 16 14 12 12 11 11 10 10 9 9 8 8 7 6 6 6 6 6 6 6 6 6 7 7
12 11 10 7 3 4 8 11 13 16 18 18 19 19 20 19 19 18 17 16 14 13 13 13 12 12 11 11 11 10 10 10 9 9 9 9 9 9 9 10 10 10 10
11 9 8 6 3 2 6 10 12 15 16 17 19 19 19 18 18 17 16 15 15 14 14 14 13 14 14 14 14 13 13 13 13 13 13 12 13 13 13 13 14 14 14
11 9 7 6 3 1 4 7 10 12 14 16 17 19 18 18 17 17 16 16 15 15 15 15 15 15 15 16 16 16 16 16 16 16 16 16 16 17 17 17 18 18 18
10 9 7 5 2 1 3 4 7 9 12 15 17 17 17 17 17 17 17 16 16 16 16 16 17 17 17 17 18 19 19 19 19 20 20 20 20 21 21 21 22 22 23
11 9 8 5 3 3 3 4 5 7 10 13 14 15 16 17 17 18 18 18 17 18 18 18 18 18 19 19 20 21 21 22 22 23 23 24 24 24 25 25 26 26 27
10 9 7 6 4 4 3 3 4 7 9 10 13 14 15 16 17 18 19 19 18 19 19 20 20 20 21 22 22 23 23 24 25 25 25 26 27 27 28 29 30 30 31
10 9 7 6 4 4 4 4 5 6 7 8 11 12 14 16 17 19 20 20 20 20 20 21 21 21 22 24 24 25 25 26 26 27 27 28 29 30 31 32 32 33 34
11 9 7 6 6 5 5 5 5 6 7 8 10 12 14 16 17 19 21 21 22 21 21 22 22 23 23 24 25 25 25 27 27 28 29 30 31 33 34 35 35 36 37
12 10 8 8 7 7 7 7 7 8 8 9 10 12 14 16 17 18 20 20 20 21 21 22 22 23 23 24 25 26 27 28 29 30 32 33 34 36 37 37 38 39 40
14 12 11 9 9 9 9 9 9 10 11 11 12 13 14 15 17 19 19 20 20 21 21 22 22 23 24 25 26 28 29 31 32 33 35 36 38 39 40 41 42 42 42
16 15 14 13 12 11 11 11 11 12 13 14 14 15 15 16 17 18 19 20 20 21 22 23 24 25 26 27 28 30 31 33 35 36 37 38 40 41 43 44 44 45 45
19 18 17 16 15 14 13 14 14 15 16 16 16 16 17 16 15 16 18 19 21 22 23 24 26 28 29 30 31 33 35 36 37 39 40 41 41 42 44 44 45 46 46
23 22 20 19 18 17 17 17 17 17 17 17 17 18 18 18 18 18 19 19 21 23 25 26 28 30 31 33 34 36 37 38 39 41 42 43 43 44 45 46 47 48 49
27 25 24 22 21 20 20 19 18 19 19 18 19 19 19 20 21 21 21 21 23 25 27 29 30 32 34 36 37 38 39 41 41 42 43 44 45 45 46 48 48 49 50
30 29 27 26 24 23 22 22 21 20 20 20 21 22 22 22 22 23 24 25 27 28 30 31 33 35 36 38 39 40 41 42 43 43 44 45 46 47 49 50 50 51 52
32 31 30 29 27 26 26 26 25 24 23 23 23 23 24 24 25 26 27 29 30 31 33 34 36 37 38 39 40 41 42 43 44 45 46 47 48 49 50 51 52 53 54
33 32 31 30 29 29 28 28 27 27 27 26 26 26 27 28 28 29 30 31 32 33 35 36 37 38 40 41 42 43 44 45 46 48 49 50 51 53 53 54 55 55 56
33 32 31 31 31 31 31 30 30 29 29 28 29 29 29 29 30 31 32 32 34 35 36 38 39 40 41 42 43 44 46 48 49 51 52 53 55 56 56 57 58 58 59
33 32 31 31 31 32 32 32 31 30 30 30 30 29 29 30 31 32 33 34 35 36 38 39 41 42 43 44 46 48 49 51 53 54 55 56 57 58 59 59 60 60 60
32 32 31 30 31 32 31 31 30 29 29 29 30 30 29 30 31 32 33 35 36 38 40 41 43 44 46 48 50 52 53 54 56 57 58 58 59 59 59 59 59 59 58
31 30 30 29 29 28 28 28 27 27 27 27 28 29 30 31 32 33 34 36 38 40 41 44 46 48 50 52 53 55 56 57 58 58 58 58 58 57 57 56 56 55 54
Wind_Direction
325 318 309 291 266 245 224 215 214 213 211 212 213 216 219 222 222 221 220 220 220 219 217 218 221 220 213 204 201 201 192 182 172 160 142 119 108 114 171 199 214 225 236
337 328 316 295 270 243 224 215 211 211 212 212 212 214 217 219 218 218 217 218 220 218 221 222 223 218 211 202 193 193 186 181 180 181 176 158 156 169 190 207 227 247 258
339 332 323 303 259 236 221 213 209 210 211 212 211 214 216 216 216 217 215 216 218 219 223 222 219 217 213 206 200 199 192 191 193 199 207 210 220 239 242 252 267 277 282
346 341 333 308 252 228 213 209 211 212 211 211 213 215 216 214 216 217 216 217 217 219 222 222 220 220 218 215 212 213 209 209 209 212 221 231 240 247 252 257 267 277 283
353 352 347 329 267 226 210 206 208 205 206 207 209 210 211 212 216 218 216 217 218 222 224 224 222 223 223 222 221 221 224 226 229 232 237 244 248 251 255 259 267 275 279
355 355 356 348 308 216 204 204 202 202 202 204 204 206 208 212 217 218 216 218 220 223 225 226 226 227 227 228 228 228 232 238 243 246 249 252 254 256 259 262 265 270 274
356 355 358 358 349 210 198 200 200 199 202 203 205 206 209 212 215 216 217 220 223 224 225 227 229 232 234 236 237 237 240 245 249 251 254 257 260 261 262 265 268 270 273
356 354 354 353 359 194 192 198 203 205 206 206 207 207 209 213 215 216 220 223 225 225 226 230 234 237 240 242 243 245 247 251 253 254 257 259 262 264 265 266 269 271 273
351 351 346 342 333 268 212 205 207 211 213 210 211 209 211 213 217 221 223 225 226 227 230 235 240 244 246 248 248 250 253 255 256 258 260 261 263 265 266 267 268 270 272
347 352 349 333 293 264 249 227 215 209 212 211 211 212 215 219 223 225 227 228 231 233 237 242 246 248 251 253 254 255 258 259 260 261 262 263 264 266 266 267 268 269 271
332 338 340 341 319 277 270 254 218 212 212 210 212 217 222 225 229 231 232 235 238 242 245 248 250 253 256 257 258 258 260 261 263 265 267 267 268 268 268 269 269 270 271
320 327 329 323 312 293 280 262 244 233 227 223 221 224 227 230 234 235 237 239 243 247 249 251 254 257 258 259 259 260 263 264 266 267 269 270 270 270 271 272 273 273 273
306 309 312 313 306 290 275 264 251 242 239 237 236 235 235 237 241 241 242 244 247 250 253 256 258 260 262 262 263 265 267 268 269 270 272 272 273 272 272 273 273 274 275
294 293 295 295 296 288 273 267 260 255 251 247 245 245 248 246 247 249 249 250 253 255 256 257 260 261 264 267 267 269 270 271 272 274 275 275 275 275 275 275 275 276 276
281 283 282 286 285 284 275 269 264 261 259 258 256 256 258 256 256 256 255 254 256 258 259 261 262 265 268 269 270 272 273 274 275 276 277 277 277 277 277 277 277 277 278
270 272 273 276 278 277 276 274 270 268 268 265 261 259 263 261 260 259 257 258 260 261 262 265 268 271 273 274 274 275 276 276 277 278 279 279 280 279 278 278 278 278 278
262 266 267 268 270 272 272 274 270 269 267 263 260 259 263 263 260 264 263 262 264 266 268 270 271 274 276 276 277 279 279 279 280 280 280 281 282 281 280 279 280 280 280
256 259 262 264 265 265 267 269 268 268 265 262 261 263 263 263 264 268 269 268 270 273 274 275 276 277 278 278 279 281 282 283 282 282 282 283 283 283 282 282 281 281 280
251 254 257 258 260 261 262 264 268 268 263 260 260 261 264 266 268 269 270 273 275 277 277 278 279 280 280 281 282 282 283 283 283 283 282 282 282 282 281 282 282 282 282
248 251 253 255 256 258 260 261 264 266 262 260 261 262 264 269 271 271 273 275 277 277 278 280 281 282 283 283 283 283 283 283 283 283 283 283 283 283 283 283 283 283 283
244 247 250 253 254 255 258 261 261 261 261 261 262 263 266 269 272 275 277 278 279 280 281 282 283 283 284 284 285 284 284 284 284 284 284 284 284 284 284 284 283 283 283
241 244 246 249 251 252 256 258 259 258 258 260 262 264 267 270 273 276 278 280 281 282 282 283 283 283 284 285 285 285 285 285 285 285 285 285 285 285 284 284 284 284 284
237 240 243 247 248 251 253 255 257 257 257 259 262 265 269 272 275 277 279 281 282 283 283 284 284 285 285 286 286 286 286 286 286 286 285 285 285 285 285 285 285 285 285
233 237 242 246 248 247 248 250 252 254 256 261 265 266 270 273 276 278 280 281 283 284 285 286 287 287 287 287 287 287 287 287 287 287 287 287 287 287 286 286 286 286 286
231 235 239 243 245 246 245 247 249 253 257 262 266 269 273 275 278 280 282 283 285 286 287 288 289 289 289 289 289 290 290 290 291 291 291 290 290 289 289 288 288 287 287
229 232 236 239 243 243 244 245 249 253 258 266 270 273 275 278 280 283 285 286 288 289 290 290 291 292 292 292 293 293 294 294 294 294 293 293 292 292 291 290 290 289 288
Height
5842 5839 5837 5836 5836 5836 5837 5839 5843 5846 5850 5854 5857 5861 5864 5867 5870 5872 5875 5877 5878 5880 5881 5882 5883 5884 5884 5885 5885 5885 5885 5885 5885 5886 5886 5886 5885 5885 5885 5885 5885 5885 5886
5840 5837 5835 5833 5832 5833 5835 5837 5840 5843 5847 5851 5854 5858 5862 5865 5868 5870 5873 5875 5877 5878 5880 5881 5882 5883 5884 5884 5884 5885 5885 5885 5885 5886 5886 5886 5887 5886 5886 5886 5886 5886 5886
5838 5835 5832 5830 5830 5830 5832 5834 5837 5840 5844 5848 5852 5855 5859 5863 5866 5868 5871 5873 5875 5877 5878 5879 5881 5882 5883 5883 5884 5884 5885 5885 5885 5885 5886 5886 5886 5886 5886 5886 5886 5886 5885
5837 5834 5831 5829 5829 5829 5830 5832 5835 5838 5841 5845 5849 5853 5857 5860 5863 5866 5869 5871 5873 5875 5876 5878 5879 5880 5881 5882 5883 5884 5884 5885 5885 5885 5885 5886 5886 5886 5886 5886 5885 5885 5885
5836 5833 5831 5829 5828 5828 5829 5831 5833 5836 5839 5843 5847 5851 5855 5858 5861 5864 5867 5869 5871 5873 5874 5876 5877 5879 5880 5881 5882 5883 5883 5884 5884 5884 5884 5884 5884 5884 5885 5885 5884 5884 5884
5836 5833 5831 5829 5827 5828 5829 5831 5833 5835 5838 5842 5845 5849 5852 5856 5859 5862 5864 5866 5868 5870 5872 5874 5875 5877 5878 5879 5880 5881 5882 5882 5883 5883 5883 5883 5883 5883 5883 5883 5882 5882 5882
5836 5834 5832 5830 5829 5829 5829 5831 5832 5834 5837 5840 5843 5847 5850 5853 5856 5859 5862 5864 5866 5868 5870 5871 5873 5874 5875 5876 5877 5878 5879 5880 5880 5880 5880 5880 5880 5880 5880 5880 5880 5879 5879
5836 5834 5832 5831 5830 5830 5830 5831 5832 5834 5836 5839 5842 5845 5848 5851 5854 5857 5859 5862 5863 5865 5867 5869 5870 5871 5872 5873 5874 5875 5875 5876 5876 5877 5877 5877 5877 5877 5877 5877 5876 5876 5875
5836 5834 5833 5832 5831 5831 5831 5831 5832 5833 5835 5838 5841 5843 5846 5849 5852 5854 5857 5859 5861 5862 5864 5866 5867 5868 5869 5869 5870 5870 5871 5871 5872 5872 5872 5872 5872 5872 5872 5872 5871 5871 5870
5836 5834 5833 5832 5831 5831 5831 5831 5830 5831 5834 5837 5839 5842 5845 5847 5849 5852 5854 5856 5857 5859 5861 5862 5863 5864 5865 5865 5865 5866 5866 5866 5866 5867 5867 5867 5867 5866 5866 5866 5865 5865 5864
5835 5834 5832 5831 5831 5831 5831 5831 5831 5832 5834 5836 5838 5841 5842 5844 5846 5848 5850 5852 5854 5855 5857 5858 5858 5859 5860 5860 5860 5860 5860 5860 5860 5861 5861 5860 5860 5860 5859 5859 5858 5857 5857
5834 5833 5832 5831 5831 5831 5831 5831 5831 5832 5834 5835 5836 5838 5839 5840 5842 5844 5846 5848 5849 5851 5852 5853 5853 5854 5854 5854 5854 5854 5854 5854 5854 5854 5854 5853 5853 5853 5852 5851 5850 5849 5848
5833 5832 5831 5830 5830 5830 5830 5830 5830 5831 5832 5833 5834 5835 5836 5837 5838 5840 5842 5843 5845 5846 5847 5847 5848 5848 5848 5848 5848 5848 5848 5847 5847 5847 5846 5846 5845 5844 5843 5842 5841 5840 5839
5831 5830 5830 5829 5829 5828 5828 5828 5829 5829 5830 5830 5831 5831 5832 5833 5834 5836 5837 5838 5840 5840 5841 5841 5842 5842 5842 5842 5842 5841 5841 5841 5840 5839 5838 5837 5836 5835 5834 5833 5832 5830 5828
5827 5827 5827 5827 5826 5826 5826 5826 5826 5827 5827 5828 5828 5828 5829 5830 5831 5831 5833 5834 5834 5835 5835 5836 5836 5836 5836 5835 5835 5834 5834 5833 5832 5831 5829 5828 5827 5825 5824 5822 5821 5819 5817
5823 5823 5823 5824 5823 5823 5823 5823 5824 5824 5823 5824 5824 5824 5825 5826 5826 5826 5828 5828 5829 5829 5830 5830 5830 5829 5829 5828 5827 5826 5825 5824 5823 5821 5819 5818 5816 5814 5812 5811 5809 5807 5805
5818 5818 5819 5819 5820 5820 5820 5820 5820 5820 5820 5819 5820 5820 5821 5821 5822 5822 5823 5823 5823 5824 5823 5823 5823 5822 5821 5821 5819 5818 5816 5815 5813 5811 5809 5807 5805 5803 5801 5799 5797 5794 5792
5812 5813 5813 5814 5815 5816 5816 5816 5816 5816 5815 5815 5816 5816 5817 5817 5817 5818 5818 5818 5818 5818 5817 5817 5816 5815 5814 5812 5811 5809 5807 5805 5803 5801 5798 5796 5793 5791 5788 5786 5784 5781 5779
5805 5806 5807 5809 5809 5810 5811 5811 5811 5811 5811 5811 5811 5812 5812 5812 5813 5813 5813 5812 5812 5811 5810 5809 5808 5807 5805 5804 5802 5800 5797 5795 5792 5790 5787 5784 5782 5779 5776 5773 5770 5767 5765
5797 5799 5800 5802 5803 5804 5805 5806 5806 5806 5806 5806 5806 5806 5806 5807 5807 5807 5806 5806 5805 5804 5802 5801 5799 5798 5796 5794 5792 5789 5787 5784 5781 5778 5775 5772 5769 5766 5763 5760 5756 5753 5750
5789 5791 5793 5795 5796 5798 5799 5800 5800 5801 5801 5801 5801 5801 5801 5801 5801 5800 5800 5799 5797 5796 5794 5792 5790 5788 5786 5784 5781 5778 5775 5772 5768 5765 5762 5759 5756 5752 5749 5745 5742 5738 5734
5781 5783 5785 5787 5789 5790 5792 5793 5793 5794 5794 5794 5794 5794 5794 5794 5793 5793 5791 5790 5789 5787 5785 5783 5780 5778 5775 5772 5769 5766 5763 5759 5755 5752 5748 5745 5741 5737 5734 5730 5726 5722 5718
5773 5775 5778 5779 5781 5783 5784 5785 5786 5787 5787 5787 5787 5787 5786 5786 5785 5784 5783 5781 5779 5777 5775 5773 5770 5767 5764 5761 5757 5754 5750 5746 5742 5738 5734 5730 5726 5722 5718 5714 5709 5705 5701
5764 5767 5770 5772 5773 5775 5776 5777 5778 5779 5780 5780 5779 5779 5778 5777 5776 5775 5774 5772 5770 5767 5765 5762 5759 5755 5752 5749 5745 5741 5737 5733 5728 5723 5719 5714 5710 5705 5700 5696 5692 5687 5683
5756 5759 5762 5764 5765 5766 5768 5769 5770 5771 5772 5772 5772 5771 5770 5769 5768 5766 5765 5762 5760 5757 5754 5751 5747 5743 5740 5736 5731 5726 5722 5716 5711 5706 5701 5696 5691 5686 5681 5676 5672 5667 5663
5749 5752 5755 5757 5759 5760 5761 5762 5763 5764 5764 5764 5764 5763 5762 5761 5759 5757 5755 5752 5750 5746 5743 5739 5735 5730 5726 5721 5716 5711 5705 5699 5694 5688 5683 5677 5672 5667 5662 5657 5652 5648 5644